Volver al catálogo

COSMOS 970 DEB

ActivoLEO
NORAD 13504·DEBRIS·🇷🇺 Russia

Lanzado Dec 21, 1977 desde Baikonur Cosmodrome

Loading…

Próximos Pases (próximas 24 horas)

TLE

ActualizadoSource: Space-Track

Época: Sep 14, 2026, 09:20 UTC

1 13504U 77121BB  26257.38920434 -.00000035  00000-0  38522-4 0  9999
2 13504  66.1147 243.7553 0192104  81.6012 351.9990 13.77524741438354

Sigue COSMOS 970 DEB en tiempo real con AllMySat

Download on the App Store